TimePST,TemperatureF,Dew PointF,Humidity,Sea Level PressureIn,VisibilityMPH,Wind Direction,Wind SpeedMPH,Gust SpeedMPH,PrecipitationIn,Events,Conditions,WindDirDegrees,DateUTC
12:53 AM,53.1,48.0,83,30.12,2.0,Calm,Calm,-,N/A,,Haze,0,2012-12-10 08:53:00
1:53 AM,52.0,46.9,83,30.12,2.0,Calm,Calm,-,N/A,,Haze,0,2012-12-10 09:53:00
2:01 AM,51.8,46.4,82,30.12,1.8,Calm,Calm,-,N/A,,Clear,0,2012-12-10 10:01:00
2:12 AM,51.8,46.4,82,30.12,2.0,Calm,Calm,-,N/A,,Clear,0,2012-12-10 10:12:00
2:45 AM,51.8,46.4,82,30.11,1.8,Calm,Calm,-,N/A,,Haze,0,2012-12-10 10:45:00
2:53 AM,51.1,46.0,83,30.11,2.0,Calm,Calm,-,N/A,,Haze,0,2012-12-10 10:53:00
3:20 AM,50.0,46.4,87,30.11,2.0,Calm,Calm,-,N/A,,Scattered Clouds,0,2012-12-10 11:20:00
3:30 AM,50.0,46.4,87,30.11,2.0,Calm,Calm,-,N/A,,Mostly Cloudy,0,2012-12-10 11:30:00
3:44 AM,50.0,46.4,87,30.11,2.0,Calm,Calm,-,N/A,,Scattered Clouds,0,2012-12-10 11:44:00
3:53 AM,50.0,45.0,83,30.10,2.0,Calm,Calm,-,N/A,,Haze,0,2012-12-10 11:53:00
4:53 AM,50.0,45.0,83,30.10,2.5,Calm,Calm,-,N/A,,Haze,0,2012-12-10 12:53:00
5:38 AM,48.2,44.6,87,30.09,1.8,Calm,Calm,-,N/A,,Clear,0,2012-12-10 13:38:00
5:49 AM,48.2,44.6,87,30.09,2.0,Calm,Calm,-,N/A,,Haze,0,2012-12-10 13:49:00
5:53 AM,48.9,44.1,83,30.10,2.0,Calm,Calm,-,N/A,,Haze,0,2012-12-10 13:53:00
6:53 AM,48.0,44.1,86,30.10,5.0,Calm,Calm,-,N/A,,Haze,0,2012-12-10 14:53:00
7:00 AM,48.2,44.6,87,30.10,1.5,Calm,Calm,-,N/A,,Haze,0,2012-12-10 15:00:00
7:30 AM,51.8,46.4,82,30.10,2.0,Calm,Calm,-,N/A,,Haze,0,2012-12-10 15:30:00
7:53 AM,53.1,46.9,80,30.11,3.0,Calm,Calm,-,N/A,,Haze,0,2012-12-10 15:53:00
8:00 AM,53.6,46.4,77,30.11,2.5,Calm,Calm,-,N/A,,Haze,0,2012-12-10 16:00:00
8:34 AM,57.2,48.2,72,30.11,3.0,Calm,Calm,-,N/A,,Haze,0,2012-12-10 16:34:00
8:53 AM,60.1,48.0,64,30.12,5.0,Calm,Calm,-,N/A,,Haze,0,2012-12-10 16:53:00
9:53 AM,66.9,46.0,47,30.13,6.0,Calm,Calm,-,N/A,,Haze,0,2012-12-10 17:53:00
10:53 AM,73.0,42.1,33,30.12,7.0,Variable,3.5,-,N/A,,Clear,0,2012-12-10 18:53:00
11:53 AM,77.0,36.0,23,30.09,10.0,Calm,Calm,-,N/A,,Clear,0,2012-12-10 19:53:00
12:53 PM,78.1,33.1,19,30.06,10.0,NNW,3.5,-,N/A,,Clear,340,2012-12-10 20:53:00
1:53 PM,78.1,33.1,19,30.05,10.0,Variable,3.5,-,N/A,,Clear,0,2012-12-10 21:53:00
2:53 PM,78.1,35.1,21,30.04,10.0,WNW,4.6,-,N/A,,Clear,290,2012-12-10 22:53:00
3:53 PM,75.0,35.1,23,30.02,10.0,Variable,5.8,-,N/A,,Clear,0,2012-12-10 23:53:00
4:53 PM,71.1,37.0,29,30.02,10.0,Calm,Calm,-,N/A,,Clear,0,2012-12-11 00:53:00
5:53 PM,66.0,41.0,40,30.03,10.0,West,3.5,-,N/A,,Clear,280,2012-12-11 01:53:00
6:53 PM,63.0,44.1,50,30.05,10.0,Calm,Calm,-,N/A,,Clear,0,2012-12-11 02:53:00
7:53 PM,59.0,46.0,62,30.05,10.0,Calm,Calm,-,N/A,,Clear,0,2012-12-11 03:53:00
8:53 PM,57.0,46.9,69,30.05,10.0,Calm,Calm,-,N/A,,Clear,0,2012-12-11 04:53:00
9:53 PM,55.9,44.1,64,30.05,10.0,Calm,Calm,-,N/A,,Clear,0,2012-12-11 05:53:00
10:53 PM,53.1,45.0,74,30.06,10.0,Calm,Calm,-,N/A,,Clear,0,2012-12-11 06:53:00
11:53 PM,53.1,44.1,71,30.05,10.0,Calm,Calm,-,N/A,,Clear,0,2012-12-11 07:53:00